EZS98MW LSGG-LFPO

Flight info

Callsign EZS98MW
Flight time 0h 49m
Altitude 26000
Route DIPIR1A/22 DIPIR T37 IBABA DCT TUTAX
Aircraft A320/M-SDE3FGHIRWY/LB1

Departure

Time 2026-05-05 19:22
Airport Geneva International Airport (LSGG)

Arrival

Time 2026-05-05 20:11
Airport Paris-Orly Airport (LFPO)
Time Latitude Longitude Altitude Speed Heading
2026-05-05 18:40 46.23054 6.10614 1404 ft 0 kts 136°
2026-05-05 18:40 46.23055 6.10613 1405 ft 0 kts 135°
2026-05-05 19:10 46.23061 6.10605 1393 ft 4 kts 132°
2026-05-05 19:10 46.23076 6.10574 1402 ft 4 kts 109°
2026-05-05 19:10 46.23079 6.10538 1400 ft 4 kts 68°
2026-05-05 19:10 46.23071 6.10519 1397 ft 0 kts 45°
2026-05-05 19:12 46.23079 6.10531 1400 ft 6 kts 45°
2026-05-05 19:13 46.23133 6.10610 1397 ft 14 kts 45°
2026-05-05 19:13 46.23196 6.10704 1398 ft 12 kts 45°
2026-05-05 19:13 46.23256 6.10775 1400 ft 10 kts 16°
2026-05-05 19:13 46.23326 6.10808 1398 ft 11 kts 26°
2026-05-05 19:14 46.23380 6.10881 1397 ft 10 kts 45°
2026-05-05 19:14 46.23426 6.10948 1393 ft 9 kts 45°
2026-05-05 19:14 46.23481 6.11030 1400 ft 14 kts 45°
2026-05-05 19:14 46.23544 6.11122 1393 ft 12 kts 45°
2026-05-05 19:15 46.23607 6.11157 1398 ft 10 kts 322°
2026-05-05 19:15 46.23649 6.11097 1394 ft 6 kts 315°
2026-05-05 19:15 46.23650 6.11095 1394 ft 0 kts 315°
2026-05-05 19:16 46.23679 6.11062 1387 ft 12 kts 337°
2026-05-05 19:17 46.23749 6.11144 1382 ft 18 kts 45°
2026-05-05 19:17 46.23860 6.11308 1375 ft 25 kts 45°
2026-05-05 19:17 46.23990 6.11499 1372 ft 28 kts 45°
2026-05-05 19:17 46.24127 6.11700 1366 ft 29 kts 45°
2026-05-05 19:18 46.24267 6.11905 1362 ft 27 kts 45°
2026-05-05 19:18 46.24401 6.12102 1369 ft 26 kts 45°
2026-05-05 19:18 46.24525 6.12284 1372 ft 26 kts 45°
2026-05-05 19:18 46.24640 6.12453 1367 ft 23 kts 46°
2026-05-05 19:19 46.24758 6.12626 1362 ft 20 kts 45°
2026-05-05 19:19 46.24869 6.12698 1364 ft 12 kts 17°
2026-05-05 19:19 46.24921 6.12722 1366 ft 0 kts 17°
2026-05-05 19:20 46.24933 6.12727 1366 ft 5 kts 17°
2026-05-05 19:20 46.24985 6.12713 1369 ft 11 kts 320°
2026-05-05 19:20 46.25006 6.12662 1372 ft 4 kts 256°
2026-05-05 19:21 46.24983 6.12624 1371 ft 13 kts 225°
2026-05-05 19:21 46.24733 6.12258 1372 ft 87 kts 225°
2026-05-05 19:21 46.24164 6.11422 1374 ft 144 kts 225°
2026-05-05 19:21 46.23386 6.10278 1713 ft 161 kts 225°
2026-05-05 19:22 46.22610 6.09114 2418 ft 161 kts 225°
2026-05-05 19:22 46.21830 6.07971 3179 ft 158 kts 223°
2026-05-05 19:22 46.21060 6.06856 3842 ft 156 kts 224°
2026-05-05 19:22 46.20301 6.05755 4505 ft 154 kts 224°
2026-05-05 19:23 46.19521 6.04625 4933 ft 169 kts 225°
2026-05-05 19:23 46.18641 6.03348 5225 ft 190 kts 225°
2026-05-05 19:23 46.17644 6.01887 5460 ft 218 kts 225°
2026-05-05 19:23 46.16533 6.00252 5929 ft 239 kts 225°
2026-05-05 19:24 46.15336 5.98502 6624 ft 250 kts 225°
2026-05-05 19:24 46.14160 5.96630 7469 ft 255 kts 235°
2026-05-05 19:24 46.13513 5.94206 8207 ft 266 kts 261°
2026-05-05 19:24 46.13656 5.91516 9027 ft 276 kts 284°
2026-05-05 19:25 46.14571 5.89036 9699 ft 288 kts 307°
2026-05-05 19:25 46.16191 5.87304 9873 ft 297 kts 334°
2026-05-05 19:25 46.18208 5.86590 9917 ft 303 kts 347°
2026-05-05 19:25 46.20392 5.86002 9915 ft 332 kts 347°
2026-05-05 19:26 46.22716 5.85374 10233 ft 345 kts 347°
2026-05-05 19:26 46.25083 5.84730 11005 ft 348 kts 346°
2026-05-05 19:26 46.27473 5.84071 11796 ft 352 kts 346°
2026-05-05 19:26 46.29887 5.83397 12574 ft 355 kts 346°
2026-05-05 19:27 46.32326 5.82712 13339 ft 359 kts 346°
2026-05-05 19:27 46.34799 5.82014 14032 ft 364 kts 346°
2026-05-05 19:27 46.37292 5.81307 14635 ft 368 kts 346°
2026-05-05 19:27 46.39799 5.80551 14846 ft 368 kts 342°
2026-05-05 19:28 46.42201 5.79302 14897 ft 365 kts 332°
2026-05-05 19:28 46.44397 5.77595 14897 ft 363 kts 328°
2026-05-05 19:28 46.46601 5.75813 14896 ft 363 kts 328°
2026-05-05 19:28 46.48805 5.74027 14896 ft 362 kts 328°
2026-05-05 19:29 46.51009 5.72240 14897 ft 362 kts 328°
2026-05-05 19:29 46.53211 5.70456 14896 ft 362 kts 328°
2026-05-05 19:29 46.55410 5.68674 14895 ft 362 kts 328°
2026-05-05 19:29 46.57613 5.66877 15001 ft 365 kts 326°
2026-05-05 19:30 46.59627 5.64645 15700 ft 365 kts 317°
2026-05-05 19:30 46.61575 5.62271 16392 ft 367 kts 317°
2026-05-05 19:30 46.62880 5.60686 16827 ft 370 kts 317°
2026-05-05 19:30 46.64865 5.58276 17466 ft 373 kts 317°
2026-05-05 19:31 46.66865 5.55841 18115 ft 376 kts 317°
2026-05-05 19:31 46.68881 5.53376 18667 ft 380 kts 317°
2026-05-05 19:31 46.70911 5.50887 19205 ft 384 kts 317°
2026-05-05 19:31 46.72966 5.48362 19754 ft 388 kts 317°
2026-05-05 19:32 46.75037 5.45812 20349 ft 389 kts 316°
2026-05-05 19:32 46.77115 5.43255 20869 ft 394 kts 316°
2026-05-05 19:32 46.79223 5.40659 21368 ft 399 kts 316°
2026-05-05 19:32 46.81357 5.38027 21893 ft 404 kts 316°
2026-05-05 19:33 46.83487 5.35331 22416 ft 406 kts 312°
2026-05-05 19:33 46.85506 5.32429 22933 ft 409 kts 310°
2026-05-05 19:33 46.87503 5.29449 23458 ft 412 kts 310°
2026-05-05 19:33 46.89493 5.26413 23869 ft 415 kts 309°
2026-05-05 19:34 46.91487 5.23342 24287 ft 418 kts 309°
2026-05-05 19:34 46.93496 5.20248 24707 ft 420 kts 309°
2026-05-05 19:34 46.95523 5.17138 25116 ft 423 kts 309°
2026-05-05 19:35 46.99596 5.10930 25801 ft 427 kts 310°
2026-05-05 19:35 47.01659 5.07797 25864 ft 427 kts 310°
2026-05-05 19:35 47.03720 5.04664 25867 ft 427 kts 310°
2026-05-05 19:35 47.05783 5.01522 25875 ft 427 kts 310°
2026-05-05 19:36 47.07838 4.98386 25879 ft 427 kts 310°
2026-05-05 19:36 47.09891 4.95244 25872 ft 427 kts 310°
2026-05-05 19:36 47.11945 4.92095 25874 ft 426 kts 310°
2026-05-05 19:36 47.13988 4.88961 25864 ft 425 kts 310°
2026-05-05 19:37 47.16031 4.85818 25865 ft 425 kts 310°
2026-05-05 19:37 47.18069 4.82677 25868 ft 424 kts 310°
2026-05-05 19:37 47.20109 4.79534 25863 ft 424 kts 310°
2026-05-05 19:37 47.22146 4.76395 25864 ft 424 kts 310°
2026-05-05 19:38 47.24185 4.73249 25867 ft 424 kts 310°
2026-05-05 19:38 47.26219 4.70111 25864 ft 424 kts 310°
2026-05-05 19:38 47.28257 4.66967 25864 ft 424 kts 310°
2026-05-05 19:38 47.30289 4.63821 25859 ft 424 kts 310°
2026-05-05 19:39 47.32321 4.60666 25863 ft 424 kts 310°
2026-05-05 19:39 47.34354 4.57506 25862 ft 424 kts 310°
2026-05-05 19:39 47.36384 4.54347 25863 ft 425 kts 311°
2026-05-05 19:39 47.38416 4.51182 25859 ft 425 kts 311°
2026-05-05 19:40 47.40448 4.48017 25860 ft 425 kts 311°
2026-05-05 19:40 47.42477 4.44850 25860 ft 425 kts 311°
2026-05-05 19:40 47.44504 4.41680 25860 ft 425 kts 311°
2026-05-05 19:40 47.46535 4.38505 25860 ft 425 kts 311°
2026-05-05 19:41 47.48566 4.35337 25861 ft 425 kts 311°
2026-05-05 19:41 47.50599 4.32165 25660 ft 425 kts 311°
2026-05-05 19:41 47.52596 4.29048 25523 ft 420 kts 311°
2026-05-05 19:41 47.54616 4.25894 25621 ft 421 kts 311°
2026-05-05 19:42 47.56605 4.22771 25356 ft 411 kts 311°
2026-05-05 19:42 47.58538 4.19711 25111 ft 402 kts 311°
2026-05-05 19:42 47.60432 4.16704 24879 ft 398 kts 311°
2026-05-05 19:42 47.62176 4.13935 24650 ft 397 kts 311°
2026-05-05 19:43 47.64057 4.10953 24409 ft 394 kts 311°
2026-05-05 19:43 47.65914 4.08011 23993 ft 389 kts 310°
2026-05-05 19:43 47.67759 4.05085 23530 ft 387 kts 310°
2026-05-05 19:43 47.69592 4.02176 23015 ft 385 kts 310°
2026-05-05 19:44 47.71412 3.99285 22543 ft 381 kts 310°
2026-05-05 19:44 47.73214 3.96427 22082 ft 378 kts 310°
2026-05-05 19:44 47.75004 3.93589 21609 ft 375 kts 311°
2026-05-05 19:44 47.76777 3.90769 21144 ft 372 kts 310°
2026-05-05 19:45 47.78538 3.87962 20667 ft 370 kts 310°
2026-05-05 19:45 47.80291 3.85169 20196 ft 368 kts 310°
2026-05-05 19:45 47.82035 3.82386 19720 ft 367 kts 310°
2026-05-05 19:45 47.83745 3.79649 19247 ft 365 kts 310°
2026-05-05 19:46 47.85471 3.76883 18778 ft 364 kts 310°
2026-05-05 19:46 47.87192 3.74126 18301 ft 363 kts 310°
2026-05-05 19:46 47.88908 3.71375 17810 ft 362 kts 310°
2026-05-05 19:46 47.90614 3.68637 17340 ft 359 kts 310°
2026-05-05 19:47 47.92306 3.65915 16879 ft 356 kts 310°
2026-05-05 19:47 47.93984 3.63216 16418 ft 354 kts 310°
2026-05-05 19:47 47.95652 3.60531 15984 ft 352 kts 310°
2026-05-05 19:47 47.97311 3.57856 15538 ft 350 kts 310°
2026-05-05 19:48 47.98958 3.55196 15102 ft 348 kts 310°
2026-05-05 19:48 48.00596 3.52546 14655 ft 346 kts 310°
2026-05-05 19:48 48.02226 3.49909 14219 ft 344 kts 310°
2026-05-05 19:48 48.03845 3.47287 13775 ft 343 kts 310°
2026-05-05 19:49 48.05458 3.44672 13302 ft 341 kts 310°
2026-05-05 19:49 48.06519 3.42951 13006 ft 339 kts 309°
2026-05-05 19:49 48.08648 3.39495 12415 ft 335 kts 310°
2026-05-05 19:49 48.10218 3.36944 11961 ft 332 kts 309°
2026-05-05 19:50 48.11661 3.34599 11555 ft 329 kts 309°
2026-05-05 19:50 48.13203 3.32090 11109 ft 326 kts 309°
2026-05-05 19:50 48.14728 3.29602 10670 ft 323 kts 309°
2026-05-05 19:50 48.16242 3.27128 10231 ft 320 kts 309°
2026-05-05 19:51 48.17731 3.24695 10000 ft 311 kts 309°
2026-05-05 19:51 48.19144 3.22386 9872 ft 299 kts 309°
2026-05-05 19:51 48.20521 3.20140 9824 ft 287 kts 309°
2026-05-05 19:51 48.21904 3.17957 9831 ft 284 kts 310°
2026-05-05 19:52 48.23147 3.15694 9833 ft 279 kts 294°
2026-05-05 19:52 48.23804 3.13034 9835 ft 275 kts 283°
2026-05-05 19:52 48.24317 3.10265 9833 ft 275 kts 282°
2026-05-05 19:52 48.24813 3.07493 9832 ft 275 kts 282°
2026-05-05 19:53 48.25308 3.04721 9833 ft 275 kts 282°
2026-05-05 19:53 48.25804 3.01943 9835 ft 275 kts 282°
2026-05-05 19:53 48.26304 2.99135 9837 ft 276 kts 283°
2026-05-05 19:53 48.26774 2.96375 9836 ft 277 kts 282°
2026-05-05 19:54 48.27244 2.93576 9835 ft 277 kts 282°
2026-05-05 19:54 48.27714 2.90772 9835 ft 277 kts 282°
2026-05-05 19:54 48.28183 2.87975 9835 ft 277 kts 282°
2026-05-05 19:54 48.28653 2.85177 9836 ft 277 kts 282°
2026-05-05 19:55 48.29122 2.82373 9830 ft 277 kts 282°
2026-05-05 19:55 48.29589 2.79569 9832 ft 277 kts 282°
2026-05-05 19:55 48.30056 2.76772 9606 ft 274 kts 282°
2026-05-05 19:55 48.30517 2.73995 9200 ft 273 kts 282°
2026-05-05 19:56 48.30972 2.71234 8801 ft 272 kts 282°
2026-05-05 19:56 48.31420 2.68489 8406 ft 270 kts 282°
2026-05-05 19:56 48.31861 2.65754 8007 ft 268 kts 282°
2026-05-05 19:56 48.32296 2.63033 7606 ft 267 kts 282°
2026-05-05 19:57 48.32727 2.60332 7222 ft 265 kts 282°
2026-05-05 19:57 48.33007 2.58553 6960 ft 264 kts 282°
2026-05-05 19:57 48.33549 2.54944 6839 ft 268 kts 282°
2026-05-05 19:57 48.33935 2.52201 6837 ft 269 kts 282°
2026-05-05 19:58 48.34317 2.49452 6846 ft 268 kts 282°
2026-05-05 19:58 48.34698 2.46701 6845 ft 270 kts 282°
2026-05-05 19:58 48.35083 2.43937 6848 ft 270 kts 282°
2026-05-05 19:58 48.35463 2.41185 6843 ft 269 kts 282°
2026-05-05 19:59 48.35844 2.38426 6848 ft 270 kts 282°
2026-05-05 19:59 48.36228 2.35668 6845 ft 270 kts 283°
2026-05-05 19:59 48.36907 2.33050 6849 ft 270 kts 299°
2026-05-05 19:59 48.37870 2.30638 6569 ft 268 kts 302°
2026-05-05 20:00 48.38855 2.28266 6135 ft 267 kts 302°
2026-05-05 20:00 48.39835 2.25903 5729 ft 265 kts 302°
2026-05-05 20:00 48.40804 2.23552 5315 ft 263 kts 302°
2026-05-05 20:00 48.41761 2.21215 4937 ft 261 kts 303°
2026-05-05 20:01 48.42678 2.18900 4467 ft 262 kts 302°
2026-05-05 20:01 48.43454 2.16906 4130 ft 260 kts 302°
2026-05-05 20:01 48.44372 2.14534 4000 ft 260 kts 302°
2026-05-05 20:01 48.45252 2.12177 4013 ft 262 kts 302°
2026-05-05 20:02 48.46140 2.09777 4018 ft 262 kts 302°
2026-05-05 20:02 48.47031 2.07371 4017 ft 263 kts 302°
2026-05-05 20:02 48.47930 2.04975 4017 ft 263 kts 302°
2026-05-05 20:02 48.48830 2.02575 4016 ft 261 kts 302°
2026-05-05 20:03 48.49724 2.00182 4018 ft 263 kts 302°
2026-05-05 20:03 48.50617 1.97766 4017 ft 263 kts 302°
2026-05-05 20:03 48.51503 1.95354 4018 ft 263 kts 302°
2026-05-05 20:03 48.52442 1.93006 4011 ft 258 kts 313°
2026-05-05 20:04 48.53845 1.91430 4014 ft 252 kts 340°
2026-05-05 20:04 48.55544 1.91001 4013 ft 249 kts
2026-05-05 20:04 48.57186 1.91784 4010 ft 251 kts 32°
2026-05-05 20:04 48.58336 1.93469 4014 ft 253 kts 56°
2026-05-05 20:05 48.59196 1.95795 4011 ft 254 kts 60°
2026-05-05 20:05 48.60029 1.98151 4012 ft 254 kts 60°
2026-05-05 20:05 48.60863 2.00484 4005 ft 247 kts 60°
2026-05-05 20:05 48.61639 2.02649 4005 ft 229 kts 59°
2026-05-05 20:06 48.62380 2.04714 4006 ft 220 kts 59°
2026-05-05 20:06 48.63085 2.06683 3985 ft 206 kts 59°
2026-05-05 20:06 48.63758 2.08561 3781 ft 201 kts 59°
2026-05-05 20:06 48.64419 2.10410 3530 ft 198 kts 59°
2026-05-05 20:07 48.65069 2.12227 3272 ft 195 kts 59°
2026-05-05 20:07 48.65652 2.13862 3030 ft 187 kts 59°
2026-05-05 20:07 48.66257 2.15557 2794 ft 179 kts 58°
2026-05-05 20:07 48.66838 2.17185 2573 ft 174 kts 58°
2026-05-05 20:08 48.67410 2.18789 2330 ft 172 kts 58°
2026-05-05 20:08 48.67963 2.20343 2064 ft 162 kts 58°
2026-05-05 20:08 48.68473 2.21780 1870 ft 146 kts 57°
2026-05-05 20:08 48.68933 2.23080 1659 ft 136 kts 57°
2026-05-05 20:09 48.69375 2.24315 1471 ft 132 kts 57°
2026-05-05 20:09 48.69810 2.25535 1288 ft 131 kts 59°
2026-05-05 20:09 48.70237 2.26734 1102 ft 132 kts 58°
2026-05-05 20:09 48.70674 2.27967 932 ft 130 kts 57°
2026-05-05 20:10 48.71101 2.29163 729 ft 133 kts 58°
2026-05-05 20:10 48.71535 2.30389 587 ft 132 kts 60°
2026-05-05 20:10 48.71971 2.31618 397 ft 133 kts 59°
2026-05-05 20:10 48.72400 2.32821 291 ft 117 kts 61°
2026-05-05 20:11 48.72693 2.33655 294 ft 64 kts 62°
2026-05-05 20:11 48.72847 2.34091 291 ft 39 kts 62°
2026-05-05 20:11 48.72959 2.34414 288 ft 31 kts 66°
2026-05-05 20:11 48.73005 2.34701 288 ft 26 kts 82°
2026-05-05 20:12 48.73028 2.34944 287 ft 21 kts 82°
2026-05-05 20:12 48.73041 2.35138 288 ft 15 kts 95°
2026-05-05 20:12 48.72999 2.35255 289 ft 10 kts 136°
2026-05-05 20:12 48.72952 2.35301 291 ft 8 kts 156°
2026-05-05 20:13 48.72911 2.35337 287 ft 9 kts 131°
2026-05-05 20:13 48.72864 2.35426 288 ft 11 kts 152°
2026-05-05 20:13 48.72804 2.35453 290 ft 6 kts 164°
2026-05-05 20:13 48.72752 2.35489 292 ft 11 kts 128°
2026-05-05 20:14 48.72762 2.35579 286 ft 8 kts 88°
2026-05-05 20:14 48.72772 2.35644 288 ft 7 kts 75°
2026-05-05 20:14 48.72785 2.35715 288 ft 6 kts 73°
2026-05-05 20:14 48.72789 2.35772 286 ft 5 kts 113°
2026-05-05 20:15 48.72770 2.35784 289 ft 3 kts 165°
2026-05-05 20:15 48.72761 2.35786 286 ft 1 kts 173°
2026-05-05 20:15 48.72753 2.35787 286 ft 2 kts 173°
2026-05-05 20:15 48.72748 2.35788 286 ft 0 kts 173°
2026-05-05 20:16 48.72749 2.35788 286 ft 0 kts 173°